This demonstration page uses our WeatherBlox Daily Observations layout. Learn more.

Left ArrowRight Arrow

39.51506, -84.39828

Hourly Observations for April 11, 2018

Temp ( °F °C ) Dew Point ( °F °C ) Humidity (%) Winds ( mph kmh ) Pressure ( in mb ) Visibility ( mi km ) Precip ( " mm )
12:55 am 00:55 Clear 30 -1.2 27 -2.8 89 89 Calm 30.24 1024 10 16 0.00 0.00
1:15 am 01:15 Clear 30 -1.1 27 -2.8 88 88 Calm 30.24 1024 10 16 0.00 0.00
1:35 am 01:35 Clear 29 -1.6 26 -3.1 90 90 Calm 30.24 1024 10 16 0.00 0.00
1:55 am 01:55 Clear 29 -1.5 27 -3 90 90 Calm 30.24 1024 10 16 0.00 0.00
2:15 am 02:15 Clear 29 -1.8 26 -3.2 90 90 Calm 30.24 1024 10 16 0.00 0.00
2:35 am 02:35 Partly Cloudy 29 -1.6 27 -2.9 91 91 Calm 30.27 1025 10 16 0.00 0.00
2:55 am 02:55 Clear 28 -2.1 26 -3.2 92 92 Calm 30.24 1024 10 16 0.00 0.00
3:15 am 03:15 Clear 28 -2.1 26 -3.1 93 93 Calm 30.24 1024 10 16 0.00 0.00
3:35 am 03:35 Clear 28 -2 27 -2.7 95 95 Calm 30.24 1024 7 11 0.00 0.00
3:55 am 03:55 Clear with Mist and Fog 28 -2.3 26 -3.1 94 94 Calm 30.24 1024 7 11 0.00 0.00
4:15 am 04:15 Clear with Mist and Fog 28 -2.5 26 -3.1 96 96 Calm 30.24 1024 7 11 0.00 0.00
4:35 am 04:35 Partly Cloudy with Mist and Fog 28 -2.5 26 -3.1 96 96 Calm 30.24 1024 7 11 0.00 0.00
4:55 am 04:55 Clear with Mist and Fog 27 -2.7 26 -3.4 95 95 Calm 30.21 1023 7 11 0.00 0.00
5:15 am 05:15 Mostly Cloudy with Mist and Fog 27 -2.7 26 -3.2 96 96 Calm 30.21 1023 5 8 0.00 0.00
5:35 am 05:35 Cloudy with Mist and Fog 28 -2.5 27 -2.8 98 98 Calm 30.21 1023 4 6 0.00 0.00
5:55 am 05:55 Mostly Cloudy 29 -1.6 28 -2.4 94 94 W 3 6 30.21 1023 7 11 0.00 0.00
6:15 am 06:15 Partly Cloudy with Mist and Fog 30 -1.3 28 -2.3 93 93 Calm 30.21 1023 7 11 0.00 0.00
6:35 am 06:35 Partly Cloudy with Mist and Fog 29 -1.9 28 -2.5 96 96 Calm 30.21 1023 5 8 0.00 0.00
6:55 am 06:55 Clear with Mist and Fog 28 -2.3 27 -3 95 95 Calm 30.21 1023 4 6 0.00 0.00
7:15 am 07:15 Sunny with Mist and Fog 27 -2.7 27 -3 98 98 W 3 6 30.21 1023 3 4 0.00 0.00
7:35 am 07:35 Sunny with Mist and Fog 29 -1.8 27 -2.6 94 94 Calm 30.21 1023 4 6 0.00 0.00
7:55 am 07:55 Sunny with Mist and Fog 29 -1.7 27 -2.6 94 94 Calm 30.21 1023 4 6 0.00 0.00
8:15 am 08:15 Partly Cloudy with Mist and Fog 29 -1.6 28 -2.3 95 95 Calm 30.21 1023 4 6 0.00 0.00
8:30 am 08:30 Sunny with Mist and Fog 32 -0.1 30 -1.1 93 93 Calm 30.24 1024 4 6 0.00 0.00
8:55 am 08:55 Cloudy with Mist and Fog 35 1.8 31 -0.5 85 85 SW 6 9 30.24 1024 5 8 0.00 0.00
9:15 am 09:15 Mostly Cloudy with Haze 36 2.2 31 -0.5 83 83 SW 6 9 30.24 1024 7 11 0.00 0.00
9:35 am 09:35 Partly Cloudy 39 3.7 31 -0.4 75 75 SSW 6 9 30.24 1024 7 11 0.00 0.00
9:55 am 09:55 Sunny 42 5.4 32 -0.2 68 68 SSW 10 17 30.18 1022 10 16 0.00 0.00
10:15 am 10:15 Sunny 44 6.6 30 -1.2 58 58 SW 15 24 30.21 1023 10 16 0.00 0.00
10:35 am 10:35 Sunny 45 7.3 30 -1.2 55 55 SSW 13 20 30.18 1022 10 16 0.00 0.00
10:55 am 10:55 Sunny 46 7.8 30 -1.1 54 54 SW 13 20 30.21 1023 10 16 0.00 0.00
11:15 am 11:15 Partly Cloudy 48 8.7 31 -0.5 53 53 SSW 10 17 30.21 1023 10 16 0.00 0.00
11:35 am 11:35 Cloudy 48 9.1 30 -0.9 50 50 S 10 17 30.18 1022 10 16 0.00 0.00
11:55 am 11:55 Sunny 51 10.3 31 -0.3 48 48 SSW 13 20 30.18 1022 10 16 0.00 0.00
12:15 pm 12:15 Sunny 52 10.9 31 -0.3 46 46 SW 15 24 30.18 1022 10 16 0.00 0.00
12:35 pm 12:35 Sunny 54 12 33 0.3 45 45 SSW 16 26 30.15 1021 10 16 0.00 0.00
12:55 pm 12:55 Sunny 55 12.6 33 0.4 43 43 SW 16 26 30.15 1021 10 16 0.00 0.00
1:15 pm 13:15 Sunny 56 13.1 34 0.9 44 44 SSW 18 30 30.12 1020 10 16 0.00 0.00
1:35 pm 13:35 Sunny 56 13.4 34 1.3 44 44 SSW 16 26 30.12 1020 10 16 0.00 0.00
1:55 pm 13:55 Sunny 57 14 35 1.5 43 43 SSW 17 28 30.12 1020 10 16 0.00 0.00
2:15 pm 14:15 Sunny 59 14.8 36 2 42 42 SSW 13 20 30.09 1019 10 16 0.00 0.00
2:35 pm 14:35 Sunny 59 15.1 35 1.8 41 41 SSW 18 30 30.09 1019 10 16 0.00 0.00
2:55 pm 14:55 Sunny 60 15.4 36 2 41 41 S 18 30 30.09 1019 10 16 0.00 0.00
3:15 pm 15:15 Sunny 60 15.8 36 2.3 40 40 SSW 16 26 30.03 1017 10 16 0.00 0.00
3:35 pm 15:35 Sunny 62 16.4 36 2.4 39 39 SSW 14 22 30.03 1017 10 16 0.00 0.00
3:55 pm 15:55 Sunny 63 17.2 37 2.6 38 38 SW 21 33 30.03 1017 10 16 0.00 0.00
4:15 pm 16:15 Sunny 63 17.1 37 2.5 38 38 SSW 22 35 30.03 1017 10 16 0.00 0.00
4:35 pm 16:35 Sunny 63 17.2 37 2.7 38 38 SW 18 30 30.03 1017 10 16 0.00 0.00
4:55 pm 16:55 Sunny 63 17.2 37 3 39 39 SSW 22 35 30.00 1016 10 16 0.00 0.00
5:15 pm 17:15 Sunny 63 17.2 37 2.8 38 38 SW 21 33 30.00 1016 10 16 0.00 0.00
5:35 pm 17:35 Sunny 63 17.2 37 2.8 38 38 SSW 20 31 30.00 1016 10 16 0.00 0.00
5:55 pm 17:55 Sunny 63 17.2 37 2.7 38 38 SSW 20 31 30.00 1016 10 16 0.00 0.00
6:15 pm 18:15 Sunny 62 16.8 37 2.5 38 38 SSW 17 28 30.00 1016 10 16 0.00 0.00
6:35 pm 18:35 Sunny 62 16.9 36 2.3 38 38 SSW 20 31 30.00 1016 10 16 0.00 0.00
6:55 pm 18:55 Sunny 62 16.4 37 2.6 40 40 SSW 15 24 30.00 1016 10 16 0.00 0.00
7:15 pm 19:15 Sunny 61 16.2 37 2.5 40 40 SW 13 20 30.00 1016 10 16 0.00 0.00
7:35 pm 19:35 Sunny 61 16.1 36 2.2 39 39 SSW 14 22 30.00 1016 10 16 0.00 0.00
7:50 pm 19:50 Sunny 60 15.4 36 2.3 42 42 SSW 12 19 30.03 1017 10 16 0.00 0.00
8:15 pm 20:15 Clear 59 15.2 36 2.3 42 42 SW 10 17 30.03 1017 10 16 0.00 0.00
8:35 pm 20:35 Clear 57 14 37 2.7 47 47 SW 9 15 30.03 1017 10 16 0.00 0.00
8:55 pm 20:55 Clear 57 13.8 37 2.8 48 48 SSW 8 13 30.03 1017 10 16 0.00 0.00
9:15 pm 21:15 Clear 56 13.1 37 2.7 50 50 SSW 7 11 30.03 1017 10 16 0.00 0.00
9:35 pm 21:35 Clear 55 12.7 37 2.6 51 51 S 6 9 30.03 1017 10 16 0.00 0.00
9:55 pm 21:55 Clear 55 12.5 37 2.9 52 52 SSW 6 9 30.03 1017 10 16 0.00 0.00
10:15 pm 22:15 Clear 54 12 38 3.1 55 55 S 7 11 30.03 1017 10 16 0.00 0.00
10:35 pm 22:35 Clear 56 13.4 38 3.2 50 50 S 9 15 30.03 1017 10 16 0.00 0.00
10:55 pm 22:55 Clear 57 14.1 37 2.8 47 47 S 7 11 30.00 1016 10 16 0.00 0.00
11:15 pm 23:15 Clear 57 14.1 37 2.9 47 47 SSW 8 13 30.03 1017 10 16 0.00 0.00
11:35 pm 23:35 Partly Cloudy 56 13.2 38 3.6 52 52 SW 10 17 30.03 1017 10 16 0.00 0.00
11:55 pm 23:55 Mostly Cloudy 56 13.1 39 3.8 54 54 SSW 9 15 30.03 1017 10 16 0.00 0.00

Powered by AerisWeather